| time (UTC) | temp C | wind direction | speed KPH | gust KPH | rain 1hr cm | rain 24hr cm | rain mn cm | humidity % | barometer mb |
| 20260505040037 | 13 | 246 | 0.0 | 8.0 | 0.00 | 0.00 | 0.00 | 82 | 1008.1 |
| 20260505034534 | 13 | 243 | 0.0 | 12.9 | 0.00 | 0.00 | 0.00 | 81 | 1008.1 |
| 20260505033022 | 13 | 273 | 1.6 | 8.0 | 0.00 | 0.00 | 0.00 | 80 | 1007.9 |
| 20260505031525 | 14 | 259 | 4.8 | 14.5 | 0.00 | 0.00 | 0.00 | 79 | 1007.8 |
| 20260505030021 | 15 | 243 | 1.6 | 9.7 | 0.00 | 0.00 | 0.00 | 77 | 1007.8 |
| 20260505024520 | 15 | 240 | 4.8 | 11.3 | 0.00 | 0.00 | 0.00 | 75 | 1007.5 |
| 20260505023020 | 16 | 276 | 3.2 | 16.1 | 0.00 | 0.00 | 0.00 | 71 | 1007.4 |
| 20260505021520 | 17 | 246 | 3.2 | 16.1 | 0.00 | 0.00 | 0.00 | 68 | 1007.3 |
| 20260505020027 | 18 | 251 | 1.6 | 12.9 | 0.00 | 0.00 | 0.00 | 66 | 1007.2 |
| 20260505014518 | 18 | 253 | 0.0 | 6.4 | 0.00 | 0.00 | 0.00 | 66 | 1007.1 |
| 20260505013017 | 18 | 267 | 1.6 | 25.7 | 0.00 | 0.00 | 0.00 | 64 | 1007.0 |
| 20260505011517 | 19 | 296 | 4.8 | 20.9 | 0.00 | 0.00 | 0.00 | 62 | 1007.0 |
| 20260505010016 | 20 | 309 | 0.0 | 16.1 | 0.00 | 0.00 | 0.00 | 62 | 1007.0 |
| 20260505004517 | 20 | 251 | 3.2 | 20.9 | 0.00 | 0.00 | 0.00 | 60 | 1007.0 |
| 20260505003014 | 21 | 245 | 0.0 | 16.1 | 0.00 | 0.00 | 0.00 | 57 | 1007.0 |
| 20260505001514 | 22 | 144 | 0.0 | 6.4 | 0.00 | 0.00 | 0.00 | 55 | 1006.9 |
| 20260505000014 | 23 | 240 | 0.0 | 12.9 | 0.00 | 0.00 | 0.00 | 53 | 1006.9 |
| 20260504234513 | 23 | 288 | 1.6 | 6.4 | 0.00 | 0.00 | 0.00 | 52 | 1006.8 |
| 20260504233012 | 23 | 269 | 0.0 | 3.2 | 0.00 | 0.00 | 0.00 | 51 | 1006.9 |
| 20260504231511 | 23 | 9 | 0.0 | 16.1 | 0.00 | 0.00 | 0.00 | 50 | 1006.9 |
| 20260504230012 | 24 | 219 | 3.2 | 16.1 | 0.00 | 0.00 | 0.00 | 49 | 1007.0 |
| 20260504224509 | 24 | 219 | 0.0 | 11.3 | 0.00 | 0.00 | 0.00 | 49 | 1007.0 |
| 20260504223010 | 24 | 270 | 0.0 | 11.3 | 0.00 | 0.00 | 0.00 | 51 | 1007.1 |
| 20260504221509 | 24 | 294 | 4.8 | 27.4 | 0.00 | 0.00 | 0.00 | 50 | 1007.2 |
| 20260504220018 | 24 | 265 | 1.6 | 11.3 | 0.00 | 0.00 | 0.00 | 52 | 1007.3 |
| 20260504214507 | 24 | 248 | 0.0 | 8.0 | 0.00 | 0.00 | 0.00 | 53 | 1007.3 |
| 20260504213003 | 23 | 213 | 0.0 | 14.5 | 0.00 | 0.00 | 0.00 | 55 | 1007.4 |
| 20260504211505 | 23 | 269 | 1.6 | 11.3 | 0.00 | 0.00 | 0.00 | 55 | 1007.7 |
| 20260504210003 | 23 | 249 | 3.2 | 14.5 | 0.00 | 0.00 | 0.00 | 54 | 1007.7 |
| 20260504204604 | 23 | 302 | 0.0 | 11.3 | 0.00 | 0.00 | 0.00 | 57 | 1007.7 |
| 20260504203057 | 23 | 216 | 3.2 | 16.1 | 0.00 | 0.00 | 0.00 | 57 | 1007.8 |
| 20260504201556 | 22 | 146 | 1.6 | 11.3 | 0.00 | 0.00 | 0.00 | 59 | 1008.0 |
| 20260504200053 | 22 | 256 | 0.0 | 4.8 | 0.00 | 0.00 | 0.00 | 62 | 1008.0 |
| 20260504194549 | 21 | 190 | 1.6 | 11.3 | 0.00 | 0.00 | 0.00 | 63 | 1007.9 |
| 20260504193059 | 21 | 276 | 1.6 | 11.3 | 0.00 | 0.00 | 0.00 | 65 | 1008.0 |
| 20260504191544 | 21 | 248 | 0.0 | 8.0 | 0.00 | 0.00 | 0.00 | 64 | 1008.2 |
| 20260504190044 | 20 | 211 | 1.6 | 12.9 | 0.00 | 0.00 | 0.00 | 66 | 1008.4 |
| 20260504184542 | 20 | 263 | 0.0 | 16.1 | 0.00 | 0.00 | 0.00 | 68 | 1008.5 |
| 20260504183041 | 19 | 246 | 1.6 | 8.0 | 0.00 | 0.00 | 0.00 | 69 | 1008.7 |
| 20260504181535 | 18 | 287 | 1.6 | 16.1 | 0.00 | 0.00 | 0.00 | 69 | 1008.7 |
| 20260504180040 | 18 | 211 | 1.6 | 8.0 | 0.00 | 0.00 | 0.00 | 70 | 1008.6 |
| 20260504174529 | 18 | 161 | 3.2 | 12.9 | 0.00 | 0.00 | 0.00 | 71 | 1008.6 |
| 20260504173027 | 18 | 253 | 1.6 | 11.3 | 0.00 | 0.00 | 0.00 | 72 | 1008.7 |
| 20260504171525 | 17 | 254 | 1.6 | 9.7 | 0.00 | 0.00 | 0.00 | 73 | 1008.6 |
| 20260504081520 | 12 | 134 | 0.0 | 0.0 | 0.00 | 0.00 | 0.00 | 87 | 1006.1 |
| 20260504050002 | 18 | 134 | 0.0 | 0.0 | 0.00 | 0.00 | 0.00 | 66 | 1005.8 |
| 20260504044600 | 18 | 134 | 0.0 | 0.0 | 0.00 | 0.00 | 0.00 | 64 | 1005.8 |
| 20260504043105 | 20 | 134 | 0.0 | 0.0 | 0.00 | 0.00 | 0.00 | 61 | 1005.7 |
| 20260504041600 | 21 | 134 | 0.0 | 0.0 | 0.00 | 0.00 | 0.00 | 55 | 1005.6 |